WAT6631 KLCK-KGYR

Flight info

Callsign WAT6631
Flight time N/A
Altitude 32000
Route PKACZ TARRY ROD BVT RBS LMN GLD PUB J64 RSK J44 INW DSERT2
Aircraft B744/H-SDE3FGHIM1M2RWXY/LB1

Departure

Time 2026-05-05 14:14
Airport Rickenbacker International Airport (KLCK)

Arrival

Time N/A
Airport Phoenix Goodyear Airport (KGYR)
Time Latitude Longitude Altitude Speed Heading
2026-05-05 13:55 39.81518 -82.93589 749 ft 0 kts
2026-05-05 14:03 39.81508 -82.93590 749 ft 2 kts
2026-05-05 14:04 39.81493 -82.93591 749 ft 2 kts
2026-05-05 14:04 39.81478 -82.93595 749 ft 2 kts 25°
2026-05-05 14:04 39.81465 -82.93606 749 ft 2 kts 40°
2026-05-05 14:04 39.81455 -82.93619 749 ft 2 kts 56°
2026-05-05 14:05 39.81448 -82.93637 749 ft 2 kts 72°
2026-05-05 14:05 39.81445 -82.93656 749 ft 2 kts 88°
2026-05-05 14:05 39.81445 -82.93666 749 ft 1 kts 94°
2026-05-05 14:05 39.81445 -82.93668 749 ft 0 kts 94°
2026-05-05 14:07 39.81445 -82.93658 749 ft 3 kts 94°
2026-05-05 14:08 39.81441 -82.93584 749 ft 12 kts 93°
2026-05-05 14:08 39.81436 -82.93457 748 ft 15 kts 92°
2026-05-05 14:08 39.81464 -82.93328 748 ft 15 kts 47°
2026-05-05 14:08 39.81545 -82.93220 747 ft 17 kts 45°
2026-05-05 14:09 39.81633 -82.93104 747 ft 18 kts 45°
2026-05-05 14:09 39.81730 -82.92976 747 ft 20 kts 46°
2026-05-05 14:09 39.81847 -82.92858 746 ft 21 kts 39°
2026-05-05 14:09 39.81958 -82.92716 746 ft 22 kts 45°
2026-05-05 14:10 39.82078 -82.92558 747 ft 25 kts 45°
2026-05-05 14:10 39.82206 -82.92392 748 ft 26 kts 45°
2026-05-05 14:10 39.82349 -82.92206 748 ft 31 kts 45°
2026-05-05 14:10 39.82512 -82.91987 749 ft 35 kts 46°
2026-05-05 14:11 39.82686 -82.91763 749 ft 34 kts 44°
2026-05-05 14:11 39.82771 -82.91617 749 ft 14 kts 98°
2026-05-05 14:11 39.82718 -82.91522 749 ft 12 kts 135°
2026-05-05 14:11 39.82652 -82.91437 749 ft 14 kts 135°
2026-05-05 14:12 39.82579 -82.91341 749 ft 15 kts 135°
2026-05-05 14:12 39.82494 -82.91232 749 ft 18 kts 135°
2026-05-05 14:12 39.82395 -82.91201 749 ft 15 kts 222°
2026-05-05 14:12 39.82316 -82.91304 748 ft 16 kts 225°
2026-05-05 14:13 39.82306 -82.91317 748 ft 0 kts 224°
2026-05-05 14:13 39.82218 -82.91432 748 ft 48 kts 225°
2026-05-05 14:13 39.81809 -82.91986 744 ft 122 kts 227°
2026-05-05 14:14 39.81031 -82.92997 746 ft 185 kts 224°
2026-05-05 14:14 39.80025 -82.94235 948 ft 208 kts 223°
2026-05-05 14:14 39.78985 -82.95509 1526 ft 204 kts 231°
2026-05-05 14:14 39.78354 -82.97142 1914 ft 207 kts 259°
2026-05-05 14:15 39.78386 -82.99031 2283 ft 214 kts 286°
2026-05-05 14:15 39.79112 -83.00759 2629 ft 222 kts 313°
2026-05-05 14:15 39.80321 -83.02012 3139 ft 223 kts 323°
2026-05-05 14:15 39.81570 -83.03259 3525 ft 230 kts 316°
2026-05-05 14:16 39.82769 -83.04736 3765 ft 245 kts 310°
2026-05-05 14:16 39.83962 -83.06461 4028 ft 259 kts 306°
2026-05-05 14:16 39.85067 -83.08295 4598 ft 259 kts 302°
2026-05-05 14:16 39.86091 -83.10230 5167 ft 258 kts 298°
2026-05-05 14:17 39.87027 -83.12228 5718 ft 258 kts 296°
2026-05-05 14:17 39.87902 -83.14262 6234 ft 258 kts 294°
2026-05-05 14:17 39.88741 -83.16343 6721 ft 260 kts 291°
2026-05-05 14:17 39.89540 -83.18473 7173 ft 263 kts 290°
2026-05-05 14:18 39.90311 -83.20647 7651 ft 265 kts 289°
2026-05-05 14:18 39.91056 -83.22842 8184 ft 264 kts 288°
2026-05-05 14:18 39.91774 -83.25038 8715 ft 263 kts 288°
2026-05-05 14:18 39.92481 -83.27266 9210 ft 263 kts 287°
2026-05-05 14:19 39.93161 -83.29478 9618 ft 265 kts 287°
2026-05-05 14:19 39.93841 -83.31742 10002 ft 268 kts 287°
2026-05-05 14:19 39.94515 -83.34016 10364 ft 271 kts 286°
2026-05-05 14:19 39.95194 -83.36345 10703 ft 276 kts 286°
2026-05-05 14:20 39.95879 -83.38735 10999 ft 282 kts 286°
2026-05-05 14:20 39.96575 -83.41176 11223 ft 292 kts 286°
2026-05-05 14:20 39.97298 -83.43738 11344 ft 305 kts 287°
2026-05-05 14:20 39.98039 -83.46371 11587 ft 312 kts 287°
2026-05-05 14:21 39.98783 -83.49030 12013 ft 313 kts 287°
2026-05-05 14:21 39.99534 -83.51708 12400 ft 314 kts 287°
2026-05-05 14:21 40.00279 -83.54394 12760 ft 316 kts 287°
2026-05-05 14:21 40.01021 -83.57107 13152 ft 317 kts 287°
2026-05-05 14:22 40.01601 -83.59883 13487 ft 316 kts 277°
2026-05-05 14:22 40.01916 -83.62726 13872 ft 316 kts 277°
2026-05-05 14:22 40.02274 -83.65623 14233 ft 318 kts 277°
2026-05-05 14:22 40.02634 -83.68484 14593 ft 319 kts 277°
2026-05-05 14:23 40.02982 -83.71349 14939 ft 320 kts 277°
2026-05-05 14:23 40.03341 -83.74226 15281 ft 321 kts 277°
2026-05-05 14:23 40.03702 -83.77122 15615 ft 322 kts 277°
2026-05-05 14:23 40.04057 -83.80016 15942 ft 323 kts 278°
2026-05-05 14:24 40.04413 -83.82918 16274 ft 324 kts 278°
2026-05-05 14:24 40.04770 -83.85834 16585 ft 325 kts 278°
2026-05-05 14:24 40.05389 -83.88711 16851 ft 330 kts 293°
2026-05-05 14:24 40.06661 -83.91237 17175 ft 335 kts 310°
2026-05-05 14:25 40.08489 -83.93185 17462 ft 343 kts 326°
2026-05-05 14:25 40.10701 -83.94461 17797 ft 347 kts 335°
2026-05-05 14:25 40.12996 -83.95609 18091 ft 348 kts 333°
2026-05-05 14:25 40.15244 -83.96834 18397 ft 348 kts 333°
2026-05-05 14:26 40.17504 -83.98061 18700 ft 349 kts 333°
2026-05-05 14:26 40.19757 -83.99290 18984 ft 350 kts 332°
2026-05-05 14:26 40.22008 -84.00525 19275 ft 351 kts 332°
2026-05-05 14:26 40.24292 -84.01787 19558 ft 352 kts 331°
2026-05-05 14:27 40.26379 -84.03370 19792 ft 346 kts 316°
2026-05-05 14:27 40.28017 -84.05659 20042 ft 341 kts 300°
2026-05-05 14:27 40.29040 -84.08433 20287 ft 337 kts 284°
2026-05-05 14:27 40.29458 -84.11459 20551 ft 337 kts 276°
2026-05-05 14:28 40.29743 -84.14511 20825 ft 337 kts 277°
2026-05-05 14:28 40.30078 -84.17564 21100 ft 337 kts 277°
2026-05-05 14:28 40.30402 -84.20625 21371 ft 337 kts 277°
2026-05-05 14:28 40.30720 -84.23685 21622 ft 338 kts 277°
2026-05-05 14:29 40.31032 -84.26727 21858 ft 339 kts 277°
2026-05-05 14:29 40.31346 -84.29812 22083 ft 341 kts 277°
2026-05-05 14:29 40.31662 -84.32914 22311 ft 343 kts 277°
2026-05-05 14:29 40.31976 -84.36034 22544 ft 344 kts 277°
2026-05-05 14:30 40.32289 -84.39140 22779 ft 344 kts 277°
2026-05-05 14:30 40.32599 -84.42252 23015 ft 345 kts 277°
2026-05-05 14:30 40.32909 -84.45396 23252 ft 345 kts 277°
2026-05-05 14:30 40.33216 -84.48505 23486 ft 346 kts 277°
2026-05-05 14:31 40.33525 -84.51663 23722 ft 346 kts 277°
2026-05-05 14:31 40.33832 -84.54820 23956 ft 347 kts 277°
2026-05-05 14:31 40.34134 -84.57928 24186 ft 347 kts 277°
2026-05-05 14:31 40.34443 -84.61074 24414 ft 347 kts 277°
2026-05-05 14:32 40.34751 -84.64230 24626 ft 348 kts 277°
2026-05-05 14:32 40.35062 -84.67445 24836 ft 350 kts 276°
2026-05-05 14:32 40.35366 -84.70629 25054 ft 351 kts 276°
2026-05-05 14:32 40.35670 -84.73807 25278 ft 352 kts 276°
2026-05-05 14:33 40.35974 -84.77010 25507 ft 352 kts 276°
2026-05-05 14:33 40.36283 -84.80228 25737 ft 353 kts 277°
2026-05-05 14:33 40.36589 -84.83440 25961 ft 354 kts 277°
2026-05-05 14:33 40.36895 -84.86653 26183 ft 354 kts 277°
2026-05-05 14:34 40.37201 -84.89859 26405 ft 355 kts 276°
2026-05-05 14:34 40.37505 -84.93076 26627 ft 355 kts 276°
2026-05-05 14:34 40.37807 -84.96294 26850 ft 356 kts 276°
2026-05-05 14:34 40.38112 -84.99522 27075 ft 356 kts 276°
2026-05-05 14:35 40.38420 -85.02799 27289 ft 356 kts 276°
2026-05-05 14:35 40.38720 -85.06036 27478 ft 357 kts 276°
2026-05-05 14:35 40.39025 -85.09301 27655 ft 359 kts 276°
2026-05-05 14:35 40.39329 -85.12564 27832 ft 361 kts 276°
2026-05-05 14:36 40.39637 -85.15892 28021 ft 362 kts 276°
2026-05-05 14:36 40.39947 -85.19248 28234 ft 363 kts 276°
2026-05-05 14:36 40.40257 -85.22607 28428 ft 364 kts 276°
2026-05-05 14:36 40.40568 -85.26026 28626 ft 365 kts 276°
2026-05-05 14:37 40.40879 -85.29423 28822 ft 366 kts 276°
2026-05-05 14:37 40.41186 -85.32794 29016 ft 366 kts 276°
2026-05-05 14:37 40.41492 -85.36147 29209 ft 367 kts 276°
2026-05-05 14:37 40.41797 -85.39523 29397 ft 367 kts 276°
2026-05-05 14:38 40.42101 -85.42910 29589 ft 368 kts 276°
2026-05-05 14:38 40.42403 -85.46256 29787 ft 369 kts 276°
2026-05-05 14:38 40.42704 -85.49650 29965 ft 370 kts 276°
2026-05-05 14:38 40.43008 -85.53050 30130 ft 371 kts 276°
2026-05-05 14:39 40.43310 -85.56427 30300 ft 373 kts 276°
2026-05-05 14:39 40.43613 -85.59837 30475 ft 374 kts 276°
2026-05-05 14:39 40.43913 -85.63225 30635 ft 375 kts 276°
2026-05-05 14:39 40.44215 -85.66666 30802 ft 376 kts 275°
2026-05-05 14:40 40.44514 -85.70094 30981 ft 376 kts 275°
2026-05-05 14:40 40.44817 -85.73570 31159 ft 377 kts 275°
2026-05-05 14:40 40.45117 -85.76994 31339 ft 378 kts 275°
2026-05-05 14:40 40.45417 -85.80454 31530 ft 378 kts 275°
2026-05-05 14:41 40.45714 -85.83890 31727 ft 378 kts 275°
2026-05-05 14:41 40.46012 -85.87370 31865 ft 380 kts 275°
2026-05-05 14:41 40.46608 -85.94374 32014 ft 389 kts 275°
2026-05-05 14:42 40.47216 -86.01545 32049 ft 401 kts 275°
2026-05-05 14:42 40.47847 -86.09000 31958 ft 414 kts 275°
2026-05-05 14:43 40.48486 -86.16650 31913 ft 424 kts 275°
2026-05-05 14:43 40.49134 -86.24421 31874 ft 430 kts 275°
2026-05-05 14:44 40.49782 -86.32310 31850 ft 432 kts 275°
2026-05-05 14:44 40.50428 -86.40183 31857 ft 431 kts 275°
2026-05-05 14:45 40.51065 -86.48055 31861 ft 431 kts 275°
2026-05-05 14:45 40.51694 -86.55892 31868 ft 430 kts 275°
2026-05-05 14:46 40.52323 -86.63747 31873 ft 430 kts 275°
2026-05-05 14:46 40.52936 -86.71632 31884 ft 429 kts 274°
2026-05-05 14:47 40.53553 -86.79491 31878 ft 428 kts 274°
2026-05-05 14:47 40.54164 -86.87277 31873 ft 428 kts 274°
2026-05-05 14:48 40.54774 -86.95088 31872 ft 427 kts 274°
2026-05-05 14:48 40.55353 -87.02914 31869 ft 427 kts 273°
2026-05-05 14:49 40.55742 -87.10695 31868 ft 425 kts 270°
2026-05-05 14:49 40.55968 -87.18484 31870 ft 425 kts 270°
2026-05-05 14:50 40.56183 -87.26274 31871 ft 424 kts 270°
2026-05-05 14:50 40.56387 -87.34092 31874 ft 423 kts 270°
2026-05-05 14:51 40.56586 -87.41874 31877 ft 423 kts 270°
2026-05-05 14:51 40.56782 -87.49612 31879 ft 423 kts 270°
2026-05-05 14:52 40.56967 -87.57385 31880 ft 422 kts 270°
2026-05-05 14:52 40.57152 -87.65113 31883 ft 422 kts 269°
2026-05-05 14:53 40.57323 -87.72910 31896 ft 423 kts 269°
2026-05-05 14:53 40.57492 -87.80657 31895 ft 423 kts 269°
2026-05-05 14:54 40.57661 -87.88470 31894 ft 422 kts 269°
2026-05-05 14:54 40.57822 -87.96210 31892 ft 422 kts 270°
2026-05-05 14:55 40.57991 -88.03990 31893 ft 422 kts 269°
2026-05-05 14:55 40.58126 -88.11739 31895 ft 423 kts 269°
2026-05-05 14:56 40.58250 -88.19518 31894 ft 423 kts 270°
2026-05-05 14:56 40.58496 -88.27296 31899 ft 422 kts 270°
2026-05-05 14:57 40.58685 -88.35049 31894 ft 421 kts 270°
2026-05-05 14:57 40.58892 -88.42744 31884 ft 421 kts 270°
2026-05-05 14:58 40.59103 -88.50486 31921 ft 420 kts 270°
2026-05-05 14:58 40.59273 -88.58189 31903 ft 420 kts 270°
2026-05-05 14:59 40.59481 -88.65933 31923 ft 420 kts 270°
2026-05-05 14:59 40.59644 -88.73689 31917 ft 421 kts 270°
2026-05-05 15:00 40.59808 -88.80126 31922 ft 421 kts 268°
2026-05-05 15:00 40.60009 -88.89132 31896 ft 422 kts 269°
2026-05-05 15:01 40.60149 -88.96902 31927 ft 421 kts 269°
2026-05-05 15:01 40.60317 -89.04620 31929 ft 420 kts 269°
2026-05-05 15:02 40.60438 -89.12327 31912 ft 421 kts 270°
2026-05-05 15:02 40.60631 -89.20058 31920 ft 419 kts 269°
2026-05-05 15:03 40.60747 -89.27789 31907 ft 419 kts 269°
2026-05-05 15:03 40.60890 -89.35529 31898 ft 420 kts 269°
2026-05-05 15:04 40.61007 -89.43257 31900 ft 421 kts 269°
2026-05-05 15:04 40.61160 -89.50949 31914 ft 421 kts 269°
2026-05-05 15:05 40.61325 -89.62625 31886 ft 422 kts 269°
2026-05-05 15:06 40.61452 -89.70407 31908 ft 423 kts 269°
2026-05-05 15:06 40.61567 -89.78188 31913 ft 422 kts 268°
2026-05-05 15:07 40.61667 -89.85979 31871 ft 423 kts 268°
2026-05-05 15:07 40.61744 -89.93756 31918 ft 423 kts 268°
2026-05-05 15:08 40.61837 -90.01539 31896 ft 423 kts 268°
2026-05-05 15:08 40.61952 -90.09296 31892 ft 422 kts 268°
2026-05-05 15:09 40.62033 -90.17033 31901 ft 422 kts 268°
2026-05-05 15:09 40.62107 -90.24831 31910 ft 421 kts 269°
2026-05-05 15:10 40.62181 -90.32567 31917 ft 421 kts 269°
2026-05-05 15:10 40.62249 -90.40305 31924 ft 421 kts 269°
2026-05-05 15:11 40.62313 -90.48050 31930 ft 421 kts 269°
2026-05-05 15:11 40.62369 -90.55805 31933 ft 421 kts 269°
2026-05-05 15:12 40.62414 -90.63562 31935 ft 420 kts 269°
2026-05-05 15:12 40.62454 -90.71317 31947 ft 421 kts 268°
2026-05-05 15:13 40.62499 -90.79107 31942 ft 420 kts 268°
2026-05-05 15:13 40.62532 -90.86826 31928 ft 420 kts 268°
2026-05-05 15:14 40.62557 -90.94576 31929 ft 419 kts 268°
2026-05-05 15:14 40.62587 -91.02380 31928 ft 419 kts 268°
2026-05-05 15:15 40.62603 -91.10098 31921 ft 419 kts 268°
2026-05-05 15:15 40.62620 -91.17802 31932 ft 418 kts 268°
2026-05-05 15:16 40.62629 -91.25527 32004 ft 420 kts 268°
2026-05-05 15:16 40.62631 -91.29374 32106 ft 419 kts 268°
2026-05-05 15:16 40.62631 -91.33257 32240 ft 419 kts 268°
2026-05-05 15:16 40.62631 -91.37150 32370 ft 418 kts 268°
2026-05-05 15:17 40.62633 -91.40973 32516 ft 417 kts 268°
2026-05-05 15:17 40.62631 -91.44816 32695 ft 416 kts 268°
2026-05-05 15:17 40.62617 -91.48689 32875 ft 415 kts 269°
2026-05-05 15:17 40.62616 -91.52498 33058 ft 413 kts 269°
2026-05-05 15:18 40.62605 -91.56286 33229 ft 412 kts 269°
2026-05-05 15:18 40.62596 -91.60090 33423 ft 410 kts 269°
2026-05-05 15:18 40.62589 -91.63869 33621 ft 408 kts 268°
2026-05-05 15:18 40.62576 -91.67616 33799 ft 407 kts 269°
2026-05-05 15:19 40.62550 -91.71390 33925 ft 407 kts 269°
2026-05-05 15:19 40.62521 -91.78946 34031 ft 410 kts 269°
2026-05-05 15:20 40.62481 -91.86536 34020 ft 410 kts 269°
2026-05-05 15:20 40.62450 -91.94087 33943 ft 408 kts 270°
2026-05-05 15:21 40.62413 -92.01585 33925 ft 406 kts 270°
2026-05-05 15:21 40.62363 -92.09154 33915 ft 407 kts 270°
2026-05-05 15:22 40.62310 -92.16664 33917 ft 407 kts 270°
2026-05-05 15:22 40.62268 -92.24197 33917 ft 406 kts 270°
2026-05-05 15:23 40.62194 -92.31660 33925 ft 405 kts 270°
2026-05-05 15:23 40.62128 -92.39130 33945 ft 404 kts 269°
2026-05-05 15:24 40.62057 -92.46580 33957 ft 404 kts 269°
2026-05-05 15:24 40.61985 -92.54015 33960 ft 404 kts 269°
2026-05-05 15:25 40.61912 -92.61488 33963 ft 404 kts 270°
2026-05-05 15:25 40.61840 -92.68858 33986 ft 403 kts 269°
2026-05-05 15:26 40.61754 -92.76314 33991 ft 404 kts 269°
2026-05-05 15:26 40.61657 -92.83804 33983 ft 403 kts 269°
2026-05-05 15:27 40.61552 -92.91211 33979 ft 402 kts 269°
2026-05-05 15:27 40.61455 -92.98668 33974 ft 401 kts 269°
2026-05-05 15:28 40.61344 -93.06050 33970 ft 399 kts 270°
2026-05-05 15:28 40.61239 -93.13439 33975 ft 396 kts 269°
2026-05-05 15:29 40.61111 -93.20682 33945 ft 391 kts 269°
2026-05-05 15:29 40.61019 -93.27917 33964 ft 390 kts 269°
2026-05-05 15:30 40.60905 -93.35117 33969 ft 391 kts 270°
2026-05-05 15:30 40.60783 -93.42318 33956 ft 391 kts 269°
2026-05-05 15:31 40.60614 -93.49553 33981 ft 391 kts 269°
2026-05-05 15:31 40.60480 -93.56804 33957 ft 391 kts 270°
2026-05-05 15:32 40.60344 -93.63996 33966 ft 391 kts 269°
2026-05-05 15:32 40.60199 -93.71259 33968 ft 392 kts 269°
2026-05-05 15:33 40.60083 -93.78463 33964 ft 393 kts 269°
2026-05-05 15:33 40.59912 -93.85715 33966 ft 392 kts 269°
2026-05-05 15:34 40.59724 -93.92991 33949 ft 392 kts 270°
2026-05-05 15:34 40.59262 -94.00153 33941 ft 393 kts 262°
2026-05-05 15:35 40.58338 -94.07295 33950 ft 392 kts 263°
2026-05-05 15:35 40.57438 -94.14405 33928 ft 391 kts 263°
2026-05-05 15:36 40.56562 -94.21542 33983 ft 391 kts 263°
2026-05-05 15:36 40.55647 -94.28670 33974 ft 391 kts 263°
2026-05-05 15:37 40.54816 -94.35760 33969 ft 392 kts 263°
2026-05-05 15:37 40.53929 -94.42887 33969 ft 392 kts 264°
2026-05-05 15:38 40.53032 -94.50065 33957 ft 391 kts 264°
2026-05-05 15:38 40.52133 -94.57143 33979 ft 391 kts 263°
2026-05-05 15:39 40.51251 -94.64253 33979 ft 391 kts 263°
2026-05-05 15:39 40.50329 -94.71378 34016 ft 392 kts 262°
2026-05-05 15:40 40.49378 -94.78548 34010 ft 393 kts 263°
2026-05-05 15:40 40.48475 -94.85648 33987 ft 393 kts 262°
2026-05-05 15:41 40.47551 -94.92783 34004 ft 391 kts 263°
2026-05-05 15:41 40.46615 -94.99943 33982 ft 391 kts 263°
2026-05-05 15:42 40.45720 -95.07045 33984 ft 391 kts 263°
2026-05-05 15:42 40.44787 -95.14146 33985 ft 391 kts 262°
2026-05-05 15:43 40.43819 -95.21210 33974 ft 391 kts 263°
2026-05-05 15:43 40.42894 -95.28293 33959 ft 391 kts 263°
2026-05-05 15:44 40.41981 -95.35368 33978 ft 391 kts 262°
2026-05-05 15:44 40.41050 -95.42480 33990 ft 391 kts 263°
2026-05-05 15:45 40.40060 -95.49574 33987 ft 390 kts 262°
2026-05-05 15:45 40.39149 -95.56632 33992 ft 390 kts 262°
2026-05-05 15:46 40.38176 -95.63687 33979 ft 390 kts 263°
2026-05-05 15:46 40.37168 -95.70813 34000 ft 391 kts 262°
2026-05-05 15:47 40.36211 -95.77883 34018 ft 391 kts 262°
2026-05-05 15:47 40.35260 -95.84999 33997 ft 392 kts 262°
2026-05-05 15:48 40.34263 -95.92093 33986 ft 392 kts 262°
2026-05-05 15:48 40.33272 -95.99181 33995 ft 391 kts 262°
2026-05-05 15:49 40.32281 -96.06249 33995 ft 391 kts 262°
2026-05-05 15:49 40.31292 -96.13324 34004 ft 391 kts 262°
2026-05-05 15:50 40.30300 -96.20402 34000 ft 391 kts 262°
2026-05-05 15:50 40.29306 -96.27484 34002 ft 391 kts 262°
2026-05-05 15:51 40.28303 -96.34571 34005 ft 391 kts 262°
2026-05-05 15:51 40.27272 -96.41643 34012 ft 391 kts 262°
2026-05-05 15:52 40.26254 -96.48715 34009 ft 391 kts 262°
2026-05-05 15:52 40.25252 -96.55779 34003 ft 391 kts 262°
2026-05-05 15:53 40.24234 -96.62826 34007 ft 391 kts 261°
2026-05-05 15:53 40.23194 -96.69938 34021 ft 392 kts 261°
2026-05-05 15:54 40.22155 -96.76984 34013 ft 391 kts 261°
2026-05-05 15:54 40.21119 -96.84054 34005 ft 390 kts 261°
2026-05-05 15:55 40.20096 -96.91077 33996 ft 390 kts 261°
2026-05-05 15:55 40.19052 -96.98128 33994 ft 390 kts 261°
2026-05-05 15:56 40.17994 -97.05167 33995 ft 390 kts 261°
2026-05-05 15:56 40.16938 -97.12223 33995 ft 390 kts 261°
2026-05-05 15:57 40.15883 -97.19257 33995 ft 391 kts 261°
2026-05-05 15:57 40.14825 -97.26288 33997 ft 391 kts 261°
2026-05-05 15:58 40.13761 -97.33327 33998 ft 391 kts 261°
2026-05-05 15:58 40.12694 -97.40370 34002 ft 391 kts 261°
2026-05-05 15:59 40.11621 -97.47411 34006 ft 391 kts 261°
2026-05-05 15:59 40.10541 -97.54474 34009 ft 391 kts 261°
2026-05-05 16:00 40.09464 -97.61478 34013 ft 391 kts 261°
2026-05-05 16:00 40.08353 -97.68567 34040 ft 391 kts 260°
2026-05-05 16:01 40.07261 -97.75594 34032 ft 391 kts 261°
2026-05-05 16:01 40.06166 -97.82626 34030 ft 391 kts 261°
2026-05-05 16:02 40.05068 -97.89652 34029 ft 391 kts 261°
2026-05-05 16:02 40.03964 -97.96690 34030 ft 391 kts 261°
2026-05-05 16:03 40.02858 -98.03715 34031 ft 391 kts 261°
2026-05-05 16:03 40.01746 -98.10740 34033 ft 391 kts 260°
2026-05-05 16:04 40.00609 -98.17778 34036 ft 391 kts 260°
2026-05-05 16:04 39.99484 -98.24788 34039 ft 391 kts 260°
2026-05-05 16:05 39.98351 -98.31842 34042 ft 391 kts 261°
2026-05-05 16:05 39.97223 -98.38847 34038 ft 391 kts 261°
2026-05-05 16:06 39.96086 -98.45885 34036 ft 391 kts 261°
2026-05-05 16:06 39.94955 -98.52866 34038 ft 391 kts 261°
2026-05-05 16:07 39.93807 -98.59922 34044 ft 391 kts 261°
2026-05-05 16:07 39.92663 -98.66923 34058 ft 392 kts 260°
2026-05-05 16:08 39.91499 -98.73986 34062 ft 391 kts 260°
2026-05-05 16:08 39.90340 -98.80999 34057 ft 391 kts 259°
2026-05-05 16:09 39.89175 -98.88003 34058 ft 391 kts 260°
2026-05-05 16:09 39.88010 -98.95009 34056 ft 390 kts 260°
2026-05-05 16:10 39.86852 -99.02007 34056 ft 390 kts 259°
2026-05-05 16:10 39.85685 -99.08962 34058 ft 390 kts 259°
2026-05-05 16:11 39.84510 -99.15951 34058 ft 390 kts 259°
2026-05-05 16:12 39.82163 -99.29866 34057 ft 389 kts 259°
2026-05-05 16:13 39.79198 -99.47239 34058 ft 388 kts 259°
2026-05-05 16:13 39.78004 -99.54166 34057 ft 387 kts 259°
2026-05-05 16:14 39.75609 -99.68000 34076 ft 387 kts 258°
2026-05-05 16:15 39.73212 -99.81802 34061 ft 387 kts 258°
2026-05-05 16:16 39.70789 -99.95565 34051 ft 386 kts 258°
2026-05-05 16:17 39.68968 -100.05870 34047 ft 386 kts 258°
2026-05-05 16:18 39.67131 -100.16193 34044 ft 386 kts 258°
2026-05-05 16:19 39.65292 -100.26498 34042 ft 386 kts 258°
2026-05-05 16:19 39.63443 -100.36804 34043 ft 387 kts 258°
2026-05-05 16:20 39.60960 -100.50571 34043 ft 387 kts 258°
2026-05-05 16:22 39.57821 -100.67784 34063 ft 387 kts 257°
2026-05-05 16:23 39.55295 -100.81501 34058 ft 387 kts 257°
2026-05-05 16:23 39.53386 -100.91840 34056 ft 388 kts 257°
2026-05-05 16:24 39.52117 -100.98689 34056 ft 388 kts 257°
2026-05-05 16:25 39.50188 -101.09036 34055 ft 388 kts 257°
2026-05-05 16:25 39.48270 -101.19317 34057 ft 388 kts 257°
2026-05-05 16:26 39.45657 -101.33057 34059 ft 388 kts 257°
2026-05-05 16:27 39.44353 -101.39938 34062 ft 388 kts 257°
2026-05-05 16:27 39.43057 -101.46813 34065 ft 387 kts 257°
2026-05-05 16:28 39.41741 -101.53667 34067 ft 387 kts 257°
2026-05-05 16:28 39.40431 -101.60496 34063 ft 387 kts 257°
2026-05-05 16:29 39.39122 -101.67377 34071 ft 388 kts 256°
2026-05-05 16:29 39.36899 -101.73865 34070 ft 391 kts 246°
2026-05-05 16:30 39.34433 -101.80254 34061 ft 390 kts 247°
2026-05-05 16:30 39.31994 -101.86584 34058 ft 390 kts 247°
2026-05-05 16:31 39.29538 -101.92960 34055 ft 390 kts 247°
2026-05-05 16:31 39.27095 -101.99302 34055 ft 390 kts 247°
2026-05-05 16:32 39.24635 -102.05676 34057 ft 390 kts 247°
2026-05-05 16:32 39.22185 -102.12015 34059 ft 390 kts 247°
2026-05-05 16:33 39.19736 -102.18358 34056 ft 390 kts 247°
2026-05-05 16:33 39.17276 -102.24718 34054 ft 391 kts 246°
2026-05-05 16:34 39.14815 -102.31049 34057 ft 391 kts 246°
2026-05-05 16:34 39.12335 -102.37414 34060 ft 391 kts 246°
2026-05-05 16:35 39.09853 -102.43774 34060 ft 391 kts 246°
2026-05-05 16:35 39.07379 -102.50082 34064 ft 392 kts 246°
2026-05-05 16:36 39.04884 -102.56462 34065 ft 392 kts 246°
2026-05-05 16:36 39.02392 -102.62765 34065 ft 392 kts 246°
2026-05-05 16:37 38.99883 -102.69115 34084 ft 392 kts 246°
2026-05-05 16:37 38.97359 -102.75514 34072 ft 393 kts 246°
2026-05-05 16:38 38.94864 -102.81838 34066 ft 392 kts 246°
2026-05-05 16:38 38.92348 -102.88172 34061 ft 392 kts 245°
2026-05-05 16:39 38.89837 -102.94507 34054 ft 392 kts 245°
2026-05-05 16:39 38.87316 -103.00845 34050 ft 392 kts 245°
2026-05-05 16:40 38.84799 -103.07157 34042 ft 392 kts 245°
2026-05-05 16:40 38.82283 -103.13454 34036 ft 393 kts 245°
2026-05-05 16:41 38.79735 -103.19785 34034 ft 393 kts 245°
2026-05-05 16:41 38.77209 -103.26097 34034 ft 393 kts 245°
2026-05-05 16:42 38.74656 -103.32416 34034 ft 393 kts 245°
2026-05-05 16:42 38.72121 -103.38699 34035 ft 393 kts 245°
2026-05-05 16:43 38.69579 -103.45010 34033 ft 393 kts 245°
2026-05-05 16:43 38.67061 -103.51234 34029 ft 393 kts 245°
2026-05-05 16:44 38.64501 -103.57547 34024 ft 393 kts 245°
2026-05-05 16:44 38.61959 -103.63803 34020 ft 393 kts 245°
2026-05-05 16:45 38.59384 -103.70122 34040 ft 394 kts 244°
2026-05-05 16:45 38.56812 -103.76446 34042 ft 394 kts 244°
2026-05-05 16:46 38.54243 -103.82697 34047 ft 394 kts 244°
2026-05-05 16:46 38.51658 -103.88998 34049 ft 394 kts 244°
2026-05-05 16:47 38.49082 -103.95268 34031 ft 394 kts 244°
2026-05-05 16:47 38.46495 -104.01558 34003 ft 394 kts 244°
2026-05-05 16:48 38.43916 -104.07815 33987 ft 394 kts 244°
2026-05-05 16:48 38.41319 -104.14108 33980 ft 394 kts 244°
2026-05-05 16:49 38.38737 -104.20369 33975 ft 394 kts 244°
2026-05-05 16:49 38.36136 -104.26631 33974 ft 394 kts 244°
2026-05-05 16:50 38.33531 -104.32874 33989 ft 394 kts 244°
2026-05-05 16:50 38.30944 -104.39144 34012 ft 394 kts 244°
2026-05-05 16:51 38.28408 -104.45460 34021 ft 394 kts 245°
2026-05-05 16:51 38.25885 -104.51752 34023 ft 394 kts 245°
2026-05-05 16:52 38.23359 -104.58052 34024 ft 394 kts 244°
2026-05-05 16:52 38.20826 -104.64346 34024 ft 394 kts 245°
2026-05-05 16:53 38.18301 -104.70644 34044 ft 394 kts 244°
2026-05-05 16:53 38.15773 -104.76952 34038 ft 394 kts 244°
2026-05-05 16:54 38.13261 -104.83223 34045 ft 394 kts 244°
2026-05-05 16:54 38.10715 -104.89549 34059 ft 394 kts 244°
2026-05-05 16:55 38.08184 -104.95814 34081 ft 394 kts 244°
2026-05-05 16:55 38.05658 -105.02080 34052 ft 394 kts 244°
2026-05-05 16:56 38.03109 -105.08383 33994 ft 392 kts 244°
2026-05-05 16:56 38.00592 -105.14556 34077 ft 390 kts 244°
2026-05-05 16:57 37.98067 -105.20774 34152 ft 392 kts 244°
2026-05-05 16:57 37.95514 -105.27040 34182 ft 393 kts 243°
2026-05-05 16:58 37.92972 -105.33284 34160 ft 395 kts 244°
2026-05-05 16:58 37.90395 -105.39574 34091 ft 395 kts 243°
2026-05-05 16:59 37.87827 -105.45827 34064 ft 394 kts 243°
2026-05-05 16:59 37.85255 -105.52092 34045 ft 394 kts 243°
2026-05-05 17:00 37.82690 -105.58339 34024 ft 394 kts 243°
2026-05-05 17:00 37.80128 -105.64545 34010 ft 394 kts 243°
2026-05-05 17:01 37.77529 -105.70805 34010 ft 395 kts 243°
2026-05-05 17:01 37.74936 -105.77062 33983 ft 395 kts 243°
2026-05-05 17:02 37.72355 -105.83311 33973 ft 394 kts 243°
2026-05-05 17:02 37.69764 -105.89534 33974 ft 394 kts 243°
2026-05-05 17:03 37.67177 -105.95737 33982 ft 394 kts 243°
2026-05-05 17:03 37.64580 -106.01955 33992 ft 394 kts 243°
2026-05-05 17:04 37.61986 -106.08157 33991 ft 394 kts 243°
2026-05-05 17:04 37.59386 -106.14367 33995 ft 395 kts 243°
2026-05-05 17:05 37.56784 -106.20565 34006 ft 395 kts 243°
2026-05-05 17:05 37.54185 -106.26747 34018 ft 395 kts 243°
2026-05-05 17:06 37.51579 -106.32932 34040 ft 395 kts 243°
2026-05-05 17:06 37.48951 -106.39172 34093 ft 395 kts 242°
2026-05-05 17:07 37.46324 -106.45372 34126 ft 396 kts 242°
2026-05-05 17:07 37.43702 -106.51569 34068 ft 396 kts 242°
2026-05-05 17:08 37.41081 -106.57747 34012 ft 394 kts 242°
2026-05-05 17:08 37.38464 -106.63898 34035 ft 393 kts 242°
2026-05-05 17:09 37.35836 -106.70039 34114 ft 395 kts 242°
2026-05-05 17:09 37.33175 -106.76269 34101 ft 398 kts 242°
2026-05-05 17:10 37.30523 -106.82458 33997 ft 397 kts 242°
2026-05-05 17:10 37.27860 -106.88670 33892 ft 396 kts 242°
2026-05-05 17:11 37.25202 -106.94855 33818 ft 395 kts 242°
2026-05-05 17:11 37.22567 -107.00993 33801 ft 395 kts 242°
2026-05-05 17:12 37.19905 -107.07156 33872 ft 395 kts 242°
2026-05-05 17:12 37.17234 -107.13346 33943 ft 397 kts 242°
2026-05-05 17:13 37.14562 -107.19524 33956 ft 399 kts 242°
2026-05-05 17:13 37.11871 -107.25713 33957 ft 397 kts 241°
2026-05-05 17:14 37.09206 -107.31861 33958 ft 396 kts 241°
2026-05-05 17:14 37.06522 -107.38005 33944 ft 396 kts 241°
2026-05-05 17:15 37.03830 -107.44161 33925 ft 396 kts 241°
2026-05-05 17:15 37.01160 -107.50284 33920 ft 396 kts 241°
2026-05-05 17:16 36.98477 -107.56425 33926 ft 396 kts 241°
2026-05-05 17:16 36.95780 -107.62557 33945 ft 396 kts 241°
2026-05-05 17:17 36.93098 -107.68643 33983 ft 396 kts 240°
2026-05-05 17:17 36.90396 -107.74798 33990 ft 397 kts 240°
2026-05-05 17:18 36.87687 -107.80946 33999 ft 398 kts 240°
2026-05-05 17:18 36.84981 -107.87075 33977 ft 398 kts 240°
2026-05-05 17:19 36.82272 -107.93186 33951 ft 398 kts 240°
2026-05-05 17:19 36.79534 -107.99345 33930 ft 398 kts 240°
2026-05-05 17:20 36.76807 -108.05489 33915 ft 398 kts 240°
2026-05-05 17:20 36.74103 -108.11597 33928 ft 398 kts 241°
2026-05-05 17:21 36.71611 -108.17851 33985 ft 396 kts 244°
2026-05-05 17:22 36.68727 -108.27529 34058 ft 386 kts 251°
2026-05-05 17:22 36.67545 -108.34032 33820 ft 373 kts 256°
2026-05-05 17:22 36.67193 -108.37239 33451 ft 369 kts 258°
2026-05-05 17:23 36.66983 -108.40490 32917 ft 380 kts 261°
2026-05-05 17:23 36.66908 -108.43923 32448 ft 395 kts 263°
2026-05-05 17:23 36.66983 -108.47411 32355 ft 403 kts 266°
2026-05-05 17:23 36.67223 -108.50960 32707 ft 400 kts 269°
2026-05-05 17:24 36.67623 -108.54365 33355 ft 390 kts 272°
2026-05-05 17:24 36.68178 -108.57648 33988 ft 381 kts 275°
2026-05-05 17:24 36.68893 -108.60895 34314 ft 380 kts 277°
2026-05-05 17:24 36.69743 -108.64077 34182 ft 388 kts 280°
2026-05-05 17:25 36.70739 -108.67297 33738 ft 403 kts 282°
2026-05-05 17:25 36.71503 -108.69527 33359 ft 416 kts 283°
2026-05-05 17:25 36.73246 -108.74061 32784 ft 440 kts 287°
2026-05-05 17:25 36.74750 -108.77493 32731 ft 452 kts 289°
2026-05-05 17:26 36.76423 -108.80886 32892 ft 454 kts 292°
2026-05-05 17:26 36.78228 -108.84126 33286 ft 450 kts 295°
2026-05-05 17:26 36.80190 -108.87226 33882 ft 441 kts 298°
2026-05-05 17:26 36.82236 -108.90073 34428 ft 432 kts 301°
2026-05-05 17:27 36.84388 -108.92736 34867 ft 428 kts 304°
2026-05-05 17:27 36.89041 -108.97664 34337 ft 443 kts 309°
2026-05-05 17:27 36.91590 -108.99998 33446 ft 459 kts 312°
2026-05-05 17:28 36.94341 -109.02280 32352 ft 484 kts 315°
2026-05-05 17:28 36.97364 -109.04551 31582 ft 507 kts 319°
2026-05-05 17:28 37.00562 -109.06611 31508 ft 515 kts 323°
2026-05-05 17:28 37.03921 -109.08398 32157 ft 507 kts 328°
2026-05-05 17:29 37.07246 -109.09747 33281 ft 489 kts 333°
2026-05-05 17:29 37.10521 -109.10700 34312 ft 471 kts 337°
2026-05-05 17:29 37.13779 -109.11352 34678 ft 467 kts 341°
2026-05-05 17:29 37.17097 -109.11796 34141 ft 482 kts 344°
2026-05-05 17:30 37.20553 -109.12077 33157 ft 509 kts 347°
2026-05-05 17:30 37.24237 -109.12201 32084 ft 542 kts 350°
2026-05-05 17:30 37.28178 -109.12148 31526 ft 567 kts 353°
2026-05-05 17:30 37.32193 -109.11787 31665 ft 576 kts 358°
2026-05-05 17:31 37.36235 -109.11061 32028 ft 567 kts
2026-05-05 17:31 37.40050 -109.09952 32991 ft 546 kts
2026-05-05 17:31 37.43612 -109.08530 34025 ft 521 kts 13°
2026-05-05 17:31 37.46952 -109.06870 34598 ft 506 kts 17°
2026-05-05 17:32 37.50218 -109.04976 34727 ft 512 kts 20°
2026-05-05 17:32 37.53473 -109.02859 33966 ft 536 kts 23°
2026-05-05 17:32 37.56853 -109.00431 32780 ft 568 kts 26°
2026-05-05 17:32 37.60322 -108.97705 31832 ft 600 kts 29°
2026-05-05 17:33 37.63882 -108.94654 30942 ft 617 kts 31°
2026-05-05 17:33 37.70812 -108.88311 31763 ft 584 kts 34°
2026-05-05 17:33 37.73880 -108.85207 33282 ft 544 kts 37°
2026-05-05 17:34 37.76666 -108.82146 34859 ft 506 kts 39°
2026-05-05 17:34 37.79229 -108.79112 35317 ft 498 kts 41°
2026-05-05 17:34 37.81746 -108.75948 34412 ft 523 kts 43°
2026-05-05 17:34 37.84380 -108.72422 32555 ft 569 kts 46°
2026-05-05 17:35 37.87107 -108.68507 30797 ft 615 kts 48°
2026-05-05 17:35 37.89908 -108.64201 29869 ft 637 kts 50°
2026-05-05 17:35 37.92593 -108.59694 30069 ft 626 kts 54°
2026-05-05 17:35 37.95008 -108.55115 31303 ft 594 kts 58°
2026-05-05 17:36 37.96950 -108.50822 33094 ft 544 kts 64°
2026-05-05 17:36 37.98536 -108.46629 34537 ft 499 kts 68°
2026-05-05 17:36 37.99840 -108.42568 34687 ft 492 kts 72°
2026-05-05 17:36 38.00997 -108.38338 33700 ft 522 kts 75°
2026-05-05 17:37 38.02055 -108.33713 32241 ft 570 kts 79°
2026-05-05 17:37 38.03012 -108.28552 31059 ft 610 kts 82°
2026-05-05 17:37 38.03798 -108.23161 30824 ft 620 kts 85°
2026-05-05 17:37 38.04411 -108.17667 31103 ft 607 kts 88°
2026-05-05 17:38 38.04791 -108.12424 31832 ft 577 kts 92°
2026-05-05 17:38 38.04917 -108.07522 33173 ft 533 kts 96°
2026-05-05 17:38 38.04842 -108.02972 34304 ft 491 kts 100°
2026-05-05 17:38 38.04607 -107.98684 34824 ft 479 kts 103°
2026-05-05 17:39 38.04208 -107.94385 34398 ft 500 kts 107°
2026-05-05 17:39 38.03607 -107.89841 33134 ft 537 kts 109°
2026-05-05 17:39 38.02767 -107.84986 32012 ft 573 kts 112°
2026-05-05 17:39 38.01689 -107.80001 30965 ft 591 kts 115°
2026-05-05 17:40 38.00337 -107.75042 30570 ft 581 kts 120°
2026-05-05 17:40 37.98756 -107.70353 31259 ft 549 kts 124°
2026-05-05 17:40 37.97091 -107.66258 32726 ft 499 kts 130°
2026-05-05 17:40 37.95382 -107.62723 34450 ft 447 kts 135°
2026-05-05 17:41 37.93619 -107.59542 35274 ft 425 kts 140°
2026-05-05 17:41 37.91753 -107.56584 34706 ft 440 kts 143°
2026-05-05 17:41 37.89584 -107.53596 33122 ft 478 kts 147°
2026-05-05 17:41 37.87073 -107.50592 31401 ft 515 kts 150°
2026-05-05 17:42 37.84201 -107.47584 30457 ft 532 kts 153°
2026-05-05 17:42 37.81219 -107.44812 30561 ft 519 kts 156°
2026-05-05 17:42 37.78222 -107.42355 31774 ft 483 kts 160°
2026-05-05 17:42 37.75469 -107.40304 33592 ft 432 kts 163°
2026-05-05 17:43 37.73005 -107.38620 35004 ft 387 kts 167°
2026-05-05 17:43 37.70578 -107.37121 35168 ft 376 kts 169°
2026-05-05 17:43 37.68103 -107.35794 33914 ft 403 kts 172°
2026-05-05 17:43 37.65334 -107.34577 32129 ft 448 kts 175°
2026-05-05 17:44 37.62150 -107.33490 30692 ft 484 kts 177°
2026-05-05 17:44 37.58749 -107.32613 30358 ft 488 kts 180°
2026-05-05 17:44 37.55410 -107.31949 31067 ft 469 kts 182°
2026-05-05 17:44 37.52288 -107.31410 32153 ft 433 kts 184°
2026-05-05 17:45 37.49472 -107.31000 33742 ft 382 kts 186°
2026-05-05 17:45 37.46952 -107.30702 34670 ft 345 kts 188°
2026-05-05 17:45 37.44541 -107.30526 34333 ft 349 kts 191°
2026-05-05 17:45 37.42005 -107.30509 33335 ft 387 kts 193°
2026-05-05 17:46 37.39137 -107.30718 31896 ft 433 kts 195°
2026-05-05 17:46 37.36026 -107.31187 31173 ft 458 kts 197°
2026-05-05 17:46 37.32860 -107.31895 31213 ft 453 kts 200°
2026-05-05 17:46 37.29777 -107.32797 31389 ft 434 kts 203°
2026-05-05 17:47 37.26985 -107.33770 32455 ft 398 kts 205°
2026-05-05 17:47 37.24504 -107.34772 33826 ft 349 kts 208°
2026-05-05 17:47 37.22333 -107.35783 34599 ft 320 kts 211°
2026-05-05 17:47 37.20231 -107.36919 34630 ft 331 kts 213°
2026-05-05 17:48 37.18073 -107.38279 33554 ft 368 kts 215°
2026-05-05 17:48 37.15767 -107.39962 32258 ft 405 kts 218°
2026-05-05 17:48 37.13324 -107.41997 31315 ft 430 kts 220°
2026-05-05 17:48 37.10876 -107.44343 30640 ft 431 kts 224°
2026-05-05 17:49 37.08655 -107.46787 31036 ft 411 kts 226°
2026-05-05 17:49 37.06701 -107.49196 32421 ft 370 kts 230°
2026-05-05 17:49 37.05123 -107.51430 34077 ft 320 kts 233°
2026-05-05 17:49 37.03834 -107.53531 35025 ft 298 kts 236°
2026-05-05 17:50 37.02633 -107.55767 34564 ft 318 kts 239°
2026-05-05 17:50 37.01448 -107.58279 33015 ft 362 kts 241°
2026-05-05 17:50 37.00227 -107.61221 31260 ft 405 kts 244°